| time (UTC) | temp F | wind direction | speed knots | gust knots | rain 1hr in | rain 24hr in | rain mn in | humidity % | barometer mb |
| 20260504081555 | 44 | 186 | 5.2 | 7.0 | 0.00 | 0.00 | 0.00 | 66 | 1003.1 |
| 20260504044546 | 41 | 178 | 0.9 | 2.6 | 0.00 | 0.00 | 0.00 | 62 | 1004.7 |
| 20260504044544 | 41 | 193 | 0.9 | 2.6 | 0.00 | 0.00 | 0.00 | 62 | 1004.7 |
| 20260504043043 | 43 | 197 | 1.7 | 2.6 | 0.00 | 0.00 | 0.00 | 59 | 1004.8 |
| 20260504041542 | 42 | 193 | 0.9 | 2.6 | 0.00 | 0.00 | 0.00 | 62 | 1004.9 |
| 20260504041540 | 42 | 193 | 0.9 | 2.6 | 0.00 | 0.00 | 0.00 | 62 | 1004.8 |
| 20260504040041 | 43 | 130 | 0.9 | 2.6 | 0.00 | 0.00 | 0.00 | 58 | 1004.8 |
| 20260504034539 | 43 | 124 | 0.9 | 2.6 | 0.00 | 0.00 | 0.00 | 56 | 1004.7 |
| 20260504033036 | 45 | 120 | 1.7 | 2.6 | 0.00 | 0.00 | 0.00 | 50 | 1004.6 |
| 20260504031548 | 47 | 108 | 0.9 | 2.6 | 0.00 | 0.00 | 0.00 | 49 | 1004.5 |
| 20260504030035 | 50 | 120 | 2.6 | 5.2 | 0.00 | 0.00 | 0.00 | 45 | 1004.4 |
| 20260504024533 | 51 | 135 | 0.0 | 1.7 | 0.00 | 0.00 | 0.00 | 43 | 1004.3 |
| 20260504023030 | 53 | 253 | 0.9 | 4.3 | 0.00 | 0.00 | 0.00 | 41 | 1004.3 |
| 20260504021528 | 56 | 269 | 2.6 | 5.2 | 0.00 | 0.00 | 0.00 | 37 | 1004.2 |
| 20260504020026 | 59 | 302 | 3.5 | 6.1 | 0.00 | 0.00 | 0.00 | 33 | 1004.2 |
| 20260504014531 | 62 | 311 | 3.5 | 5.2 | 0.00 | 0.00 | 0.00 | 29 | 1004.3 |
| 20260504013025 | 63 | 321 | 4.3 | 7.8 | 0.00 | 0.00 | 0.00 | 28 | 1004.3 |
| 20260504011522 | 64 | 316 | 5.2 | 12.2 | 0.00 | 0.00 | 0.00 | 28 | 1004.5 |
| 20260504010020 | 65 | 347 | 4.3 | 10.4 | 0.00 | 0.00 | 0.00 | 27 | 1004.5 |
| 20260504004521 | 65 | 337 | 6.1 | 11.3 | 0.00 | 0.00 | 0.00 | 27 | 1004.4 |
| 20260504003016 | 65 | 309 | 7.8 | 14.8 | 0.00 | 0.00 | 0.00 | 27 | 1004.6 |
| 20260504001514 | 66 | 20 | 6.1 | 13.0 | 0.00 | 0.00 | 0.00 | 28 | 1004.8 |
| 20260504000008 | 66 | 346 | 8.7 | 14.8 | 0.00 | 0.00 | 0.00 | 26 | 1004.9 |
| 20260503234507 | 66 | 344 | 7.0 | 11.3 | 0.00 | 0.00 | 0.00 | 28 | 1005.0 |
| 20260503233014 | 66 | 276 | 3.5 | 13.0 | 0.00 | 0.00 | 0.00 | 29 | 1005.1 |
| 20260503231503 | 66 | 243 | 7.0 | 15.6 | 0.00 | 0.00 | 0.00 | 28 | 1005.2 |
| 20260503230030 | 65 | 236 | 10.4 | 14.8 | 0.00 | 0.00 | 0.00 | 29 | 1005.3 |
| 20260503224528 | 65 | 269 | 6.1 | 13.9 | 0.00 | 0.00 | 0.00 | 29 | 1005.5 |
| 20260503223054 | 65 | 269 | 7.0 | 11.3 | 0.00 | 0.00 | 0.00 | 29 | 1005.7 |
| 20260503221558 | 64 | 243 | 7.8 | 15.6 | 0.00 | 0.00 | 0.00 | 29 | 1005.8 |
| 20260503220046 | 64 | 281 | 11.3 | 15.6 | 0.00 | 0.00 | 0.00 | 29 | 1006.1 |
| 20260503214542 | 64 | 300 | 11.3 | 19.1 | 0.00 | 0.00 | 0.00 | 29 | 1006.2 |
| 20260503213042 | 64 | 269 | 14.8 | 24.3 | 0.00 | 0.00 | 0.00 | 29 | 1006.5 |
| 20260503211538 | 62 | 269 | 18.2 | 25.2 | 0.00 | 0.00 | 0.00 | 33 | 1006.6 |
| 20260503210031 | 64 | 337 | 8.7 | 13.9 | 0.00 | 0.00 | 0.00 | 31 | 1006.7 |
| 20260503204530 | 64 | 322 | 8.7 | 13.0 | 0.00 | 0.00 | 0.00 | 33 | 1006.9 |
| 20260503203027 | 64 | 354 | 4.3 | 13.9 | 0.00 | 0.00 | 0.00 | 32 | 1007.0 |
| 20260503201526 | 66 | 306 | 9.6 | 12.2 | 0.00 | 0.00 | 0.00 | 30 | 1007.0 |
| 20260503200022 | 64 | 18 | 7.0 | 10.4 | 0.00 | 0.00 | 0.00 | 32 | 1007.0 |
| 20260503194522 | 63 | 308 | 3.5 | 8.7 | 0.00 | 0.00 | 0.00 | 37 | 1007.1 |
| 20260503193015 | 61 | 352 | 5.2 | 8.7 | 0.00 | 0.00 | 0.00 | 39 | 1007.3 |
| 20260503191510 | 59 | 30 | 7.8 | 11.3 | 0.00 | 0.00 | 0.00 | 44 | 1007.6 |
| 20260503190004 | 61 | 338 | 8.7 | 13.0 | 0.00 | 0.00 | 0.00 | 37 | 1008.1 |
| 20260503184503 | 62 | 310 | 6.1 | 12.2 | 0.00 | 0.00 | 0.00 | 32 | 1008.2 |
| 20260503183058 | 62 | 231 | 8.7 | 14.8 | 0.00 | 0.00 | 0.00 | 34 | 1008.4 |
| 20260503181555 | 64 | 250 | 5.2 | 15.6 | 0.00 | 0.00 | 0.00 | 33 | 1008.7 |
| 20260503180058 | 62 | 238 | 6.1 | 14.8 | 0.00 | 0.00 | 0.00 | 35 | 1008.9 |
| 20260503174544 | 61 | 178 | 8.7 | 13.9 | 0.00 | 0.00 | 0.00 | 37 | 1009.0 |
| 20260503173112 | 61 | 198 | 13.0 | 14.8 | 0.00 | 0.00 | 0.00 | 37 | 1009.2 |
| 20260503171507 | 60 | 195 | 8.7 | 14.8 | 0.00 | 0.00 | 0.00 | 37 | 1009.4 |